Wind_Speed
40 42 45 47 49 49 47 46 46 46 47 47 47 48 47 44 41 38 36 38 38 36 36 35 32 30 30 30 31 31 30 29 29 28 28 27 27 26 26 25 25 23 21 20 18 17 16 15 15 15 15 16 16 16 16 15 15 14 14 14 13 13 12 12 11 10 9 9 7 6 5 4 4 4
37 41 43 45 48 49 49 48 47 46 46 47 47 48 47 45 45 44 42 42 41 37 36 35 32 31 30 30 31 32 31 30 30 30 29 29 29 28 28 27 26 24 23 21 20 19 18 17 16 16 16 16 16 16 16 15 15 14 14 14 14 13 13 12 12 11 10 10 8 7 6 6 6 6
33 37 41 43 46 47 49 50 50 49 47 47 47 47 47 46 46 46 45 43 42 38 37 36 33 31 30 30 31 31 31 31 31 31 31 30 31 31 30 29 28 26 24 23 21 20 19 17 16 16 16 16 16 16 16 15 15 15 14 14 14 14 13 13 13 12 11 11 10 9 8 8 8 7
29 33 37 40 43 44 46 48 50 51 50 49 47 46 47 46 44 44 45 44 43 41 39 37 35 32 31 31 31 31 31 31 31 32 32 32 33 34 33 31 29 28 26 25 23 21 20 18 17 16 16 16 17 16 16 16 15 15 15 15 14 14 14 13 13 12 11 11 10 10 9 9 9 9
26 29 33 36 38 40 43 46 48 50 52 52 51 49 48 47 45 43 44 45 43 41 40 39 36 34 33 33 32 32 32 32 32 33 33 34 35 36 35 34 32 30 29 27 25 23 22 20 18 17 16 17 17 17 17 16 16 16 15 15 14 14 13 13 12 12 12 12 11 11 11 11 10 8
26 28 31 33 34 36 39 43 45 48 50 51 53 53 53 52 50 47 46 46 44 43 43 42 39 37 36 36 34 33 33 32 33 33 34 35 36 37 38 36 34 32 31 29 28 26 24 22 20 18 17 18 18 18 17 17 16 16 16 15 15 14 13 13 13 13 13 13 12 12 12 12 11 8
26 28 30 31 31 32 36 40 42 45 47 49 51 53 54 55 55 53 50 48 47 46 45 44 43 42 40 38 37 35 33 33 34 34 34 35 36 38 39 39 36 34 33 32 30 29 27 24 22 20 19 19 18 18 17 17 17 16 16 15 14 14 14 14 14 15 15 14 13 13 13 12 10 8
27 29 31 32 31 31 34 37 39 41 44 47 49 51 53 55 56 55 54 52 51 49 47 46 46 45 43 40 38 36 35 34 35 35 35 35 36 38 40 40 39 37 36 35 32 30 28 26 23 21 20 20 19 18 18 17 17 17 16 15 15 15 15 16 16 16 16 15 14 14 14 12 11 9
28 30 31 32 31 31 34 37 37 38 41 43 46 49 51 53 54 54 54 54 53 52 51 50 47 46 43 41 39 38 38 37 36 37 38 37 37 39 41 42 41 40 38 37 34 32 30 28 25 23 21 21 20 19 18 18 18 17 17 16 16 17 17 17 17 17 17 16 16 15 14 13 12 11
28 30 32 33 32 33 36 37 37 38 39 40 43 47 49 50 51 53 54 54 54 55 55 53 51 49 47 44 42 41 40 39 39 39 39 39 39 41 43 44 44 43 40 38 36 34 32 29 27 25 23 22 21 20 20 19 19 19 18 18 18 19 19 18 18 18 18 17 16 15 14 14 13 12
29 30 31 33 33 35 36 37 38 38 39 40 42 44 45 47 49 51 52 53 53 54 55 55 53 52 51 48 46 45 42 41 41 41 41 41 41 43 45 46 46 44 42 40 38 36 34 31 29 27 25 23 22 22 21 21 21 20 20 20 20 20 20 19 19 19 18 18 17 16 16 15 15 14
32 32 32 33 34 35 37 38 38 38 39 41 42 43 43 44 46 49 50 51 52 53 55 56 56 54 53 51 49 47 45 45 46 44 42 41 42 42 43 45 45 45 43 42 40 38 36 34 32 30 27 26 24 23 23 22 22 22 21 21 21 21 20 20 19 19 18 18 18 17 17 16 16 15
34 35 35 34 35 35 37 37 38 38 38 40 42 43 43 43 44 47 49 50 51 52 53 55 56 54 54 55 54 53 52 52 50 45 42 43 43 41 41 43 45 45 44 43 41 39 37 36 34 32 30 27 26 25 24 24 23 23 22 22 22 21 21 20 20 20 19 19 19 18 18 18 17 16
35 35 36 36 37 37 37 37 37 37 38 39 41 42 42 43 43 45 47 49 51 51 52 55 56 56 56 58 59 60 59 56 51 46 45 45 43 42 43 45 45 46 45 44 42 41 39 38 36 34 31 29 28 27 26 25 25 24 24 23 23 22 22 21 21 20 20 20 20 19 19 19 18 18
36 36 36 36 37 38 39 39 38 37 38 39 40 40 41 42 44 45 46 48 51 51 52 54 56 58 59 61 62 62 60 56 52 50 48 46 45 46 47 47 47 47 46 45 43 42 41 39 38 36 33 31 30 28 27 27 27 26 25 24 23 23 22 22 21 21 21 21 20 20 20 20 20 19
37 36 36 36 36 37 38 39 39 39 39 39 38 38 40 42 45 46 47 48 49 51 53 54 56 59 60 60 61 62 61 58 54 51 49 48 48 49 48 48 47 45 43 44 45 44 42 42 40 38 35 32 31 30 29 29 29 27 26 25 24 23 23 22 22 22 22 22 21 21 22 22 21 21
40 38 37 36 36 37 37 37 38 40 40 39 38 37 37 40 43 47 49 50 49 50 52 55 57 60 59 58 60 62 61 59 56 54 53 52 51 51 50 48 46 43 41 43 45 45 44 44 43 40 36 34 33 32 31 30 30 28 27 26 24 24 23 23 23 23 23 22 22 23 23 23 23 22
43 41 40 38 38 37 36 36 37 37 39 39 38 37 38 39 41 44 47 50 52 52 53 55 58 60 58 57 58 59 58 58 58 57 57 55 53 52 50 48 46 45 42 40 42 45 46 45 44 41 38 35 35 33 32 31 30 29 27 26 25 24 24 24 23 23 23 23 23 24 24 24 24 24
47 44 42 41 41 39 37 36 35 36 36 37 38 39 40 41 41 42 44 48 52 54 56 57 58 58 57 56 56 55 55 57 57 57 56 55 54 52 51 51 51 49 45 41 42 45 45 44 44 42 38 37 36 34 33 32 30 29 28 27 26 25 24 24 24 24 24 24 25 24 24 24 25 25
51 49 46 45 44 42 40 37 35 34 35 36 38 40 42 43 42 43 45 45 47 50 54 58 58 57 56 56 54 53 54 54 54 53 53 54 53 53 54 54 53 52 49 46 46 46 44 43 42 41 38 38 36 34 33 32 31 30 28 27 26 26 25 25 24 25 25 25 25 25 25 25 25 26
54 52 51 48 47 45 43 40 36 33 33 36 38 40 42 43 44 46 46 45 44 45 47 52 56 57 56 56 56 55 55 54 52 52 54 56 56 55 55 54 54 53 51 49 47 48 46 43 40 39 38 38 37 34 33 32 31 30 29 27 27 26 26 25 25 26 26 26 26 26 25 25 25 26
56 55 54 52 49 49 46 43 39 34 32 35 38 40 41 43 46 47 47 46 44 43 42 44 48 52 54 55 55 57 58 57 56 56 57 58 57 57 56 56 54 52 51 50 49 48 47 43 39 38 38 37 36 34 32 32 31 30 29 28 27 26 26 26 26 27 27 26 26 26 26 25 25 25
57 56 56 54 53 51 49 46 42 37 34 35 37 39 41 44 47 48 46 44 43 42 42 43 45 49 52 53 54 55 57 58 59 59 59 59 59 59 58 57 54 51 51 51 49 47 47 45 41 39 39 37 35 33 33 32 32 30 29 28 27 27 26 26 27 28 28 27 27 26 26 25 25 25
58 56 56 56 55 53 51 49 45 41 37 36 37 39 41 44 46 45 43 43 43 43 44 43 43 46 49 52 54 55 55 56 58 59 58 59 61 60 59 59 58 55 54 52 49 47 46 45 43 42 40 36 33 33 33 33 32 31 29 28 28 28 27 27 27 28 28 27 27 26 26 25 25 25
60 59 58 56 55 54 53 51 48 45 41 38 38 40 42 42 42 41 43 44 42 42 42 42 43 44 47 51 54 56 56 56 57 57 56 57 59 59 59 59 59 58 56 52 49 47 47 46 45 44 41 37 33 30 30 31 31 31 29 28 27 27 27 27 28 28 28 27 27 26 26 25 24 24
63 63 61 59 56 54 52 51 50 47 44 41 40 41 42 41 39 39 43 44 42 41 40 41 43 45 47 50 53 55 57 57 58 57 56 56 56 56 57 57 57 57 56 52 47 45 46 47 47 45 43 41 37 33 30 29 29 29 29 28 27 27 27 27 28 28 28 28 27 26 26 25 24 24
63 64 63 60 57 54 52 51 50 49 46 43 42 42 42 40 38 38 41 43 43 42 41 42 44 47 49 51 53 55 56 56 57 57 56 55 55 54 54 54 54 54 53 51 47 45 45 45 46 45 44 41 39 37 35 31 29 29 29 29 29 27 27 28 29 29 28 28 28 27 26 25 24 23
60 63 63 61 59 57 54 52 50 49 47 45 43 42 42 40 39 38 40 42 44 44 43 44 46 48 50 51 52 53 54 53 54 54 55 55 55 54 54 54 53 51 49 47 46 44 43 43 44 43 42 40 39 38 36 33 31 30 29 29 29 27 27 28 29 29 29 28 28 28 27 26 24 23
54 57 60 60 59 57 54 51 49 48 47 45 44 42 41 41 41 41 41 43 44 46 46 47 48 49 50 50 50 50 49 50 51 52 53 54 55 55 54 53 52 50 48 46 44 41 40 41 41 41 40 39 38 37 35 33 31 30 29 29 28 26 26 27 28 28 28 28 28 29 28 27 26 25
47 49 52 54 54 52 50 48 46 46 46 46 45 42 41 41 42 43 43 44 46 47 49 49 49 48 47 47 47 47 48 49 51 52 53 54 54 55 55 54 51 49 47 45 43 41 40 40 40 40 39 37 36 35 34 33 31 30 29 28 27 25 25 26 26 27 27 28 28 29 28 28 27 26
41 44 45 47 48 47 45 44 44 45 45 45 44 42 40 41 43 45 45 46 47 48 49 48 48 46 45 44 45 47 49 50 51 52 53 53 53 54 53 52 51 49 48 46 44 42 41 40 39 38 37 36 35 35 34 33 32 30 28 27 27 25 24 24 25 25 25 26 28 28 28 27 27 27
35 37 39 41 43 44 44 43 43 43 44 44 44 42 41 41 43 45 46 46 47 48 48 47 45 44 44 44 46 47 48 49 50 51 52 52 52 53 52 52 52 51 50 49 47 44 42 40 39 37 36 35 34 33 33 32 31 29 27 26 26 25 24 24 24 24 24 25 27 27 27 28 27 27
37 35 35 37 40 41 41 42 42 42 42 43 43 43 42 41 42 45 46 46 47 48 47 46 45 44 45 45 46 47 48 49 50 51 51 51 51 51 52 52 52 53 53 51 48 46 43 40 38 37 36 35 34 33 32 32 30 27 25 24 25 25 23 22 23 24 24 25 27 27 28 28 28 27
41 40 38 38 39 40 39 39 39 40 41 42 43 43 43 42 42 44 46 47 48 47 47 46 45 45 45 46 46 47 48 48 49 50 50 50 50 50 51 52 52 52 51 50 48 46 44 41 39 37 35 34 33 32 32 30 28 25 23 24 24 23 22 21 22 23 23 24 26 28 29 30 28 27
43 43 41 39 37 36 36 36 36 38 40 41 42 42 41 41 42 43 45 47 47 47 46 46 46 46 46 47 47 47 47 48 48 49 49 49 49 49 50 50 50 50 48 46 45 44 42 41 39 37 35 33 31 31 31 29 26 24 23 23 23 21 20 20 21 21 22 23 25 27 30 31 29 27
45 44 42 40 37 34 33 33 34 35 37 39 39 39 39 40 41 43 45 46 47 47 47 46 47 47 47 47 47 47 47 48 48 49 49 49 49 48 47 48 48 47 45 44 42 41 40 39 38 38 36 34 32 32 31 28 25 23 23 22 21 19 19 19 20 21 22 23 24 27 28 30 29 27
45 43 40 40 39 36 35 34 34 33 34 36 37 37 38 40 41 43 45 45 45 45 46 46 47 48 47 46 46 46 47 48 48 49 50 49 48 48 47 46 46 45 44 42 40 39 39 39 39 38 37 34 33 32 28 24 23 22 22 20 19 18 18 18 20 21 22 22 24 25 26 28 29 28
43 42 41 39 38 38 38 36 34 32 32 33 35 36 38 39 40 40 42 43 44 43 44 45 47 48 47 46 46 46 47 48 48 49 49 49 49 48 48 47 45 44 42 40 39 39 39 39 38 37 35 34 33 31 27 24 22 21 19 18 17 17 18 19 20 21 22 22 23 24 25 27 29 29
39 40 41 40 39 37 36 34 31 30 30 32 34 36 37 38 39 39 40 41 42 42 43 45 46 47 46 46 46 46 47 48 48 49 49 49 49 48 48 47 46 44 42 41 40 39 38 37 36 34 33 31 31 28 25 22 20 18 17 17 18 18 18 18 19 20 21 21 22 24 26 28 30 30
37 37 38 39 39 36 34 35 34 32 31 31 33 35 37 38 38 38 39 40 41 41 43 44 45 46 46 46 46 46 47 48 49 49 49 48 48 47 47 47 46 44 42 40 39 38 37 36 34 31 29 27 26 23 20 19 18 18 17 16 16 16 16 17 18 19 20 21 22 25 28 30 32 32
36 35 33 35 37 35 33 33 34 32 30 31 33 35 37 37 37 38 39 40 40 40 42 43 44 46 46 47 47 47 47 47 48 48 48 47 46 46 46 45 43 42 40 39 38 37 36 33 29 27 26 25 23 22 21 20 19 17 15 14 14 15 16 16 17 18 20 21 22 25 28 29 32 35
31 32 31 31 32 32 30 29 29 27 27 29 33 34 35 35 36 37 38 38 39 40 41 43 44 46 47 47 47 47 46 46 46 46 46 46 45 44 44 42 41 40 39 37 36 34 31 28 27 26 25 23 22 22 22 20 17 16 14 14 15 16 17 17 16 17 19 20 21 24 26 27 30 36
26 26 27 27 29 30 29 27 25 24 25 28 31 33 33 34 35 36 36 37 38 40 41 43 44 46 46 46 45 45 44 44 45 45 45 44 44 43 42 41 39 37 35 33 31 30 28 27 26 25 24 22 22 21 20 17 16 15 15 15 15 16 17 16 16 17 19 20 21 23 24 24 28 34
20 19 20 23 26 28 26 23 22 23 24 27 30 32 33 33 34 35 36 37 38 39 41 42 44 45 45 44 43 42 42 42 43 43 43 42 41 41 41 39 37 33 31 30 29 28 27 26 24 23 22 21 20 19 18 16 16 16 15 15 16 16 16 16 17 19 21 23 23 23 23 24 27 32
15 16 17 19 21 20 18 17 18 21 23 26 29 31 32 32 33 34 35 36 37 39 40 41 42 43 43 42 41 40 40 40 40 40 39 40 39 38 37 35 33 31 30 30 28 27 26 24 23 22 21 19 18 18 17 16 16 15 15 16 16 15 16 17 19 22 25 26 25 24 25 27 29 31
Wind_Direction
257 254 251 248 246 246 246 247 248 248 247 247 245 244 243 240 237 235 233 236 241 242 244 247 247 247 247 246 246 246 244 244 245 245 243 240 236 233 230 228 227 226 228 231 236 240 244 247 251 254 256 256 256 255 255 255 253 251 249 246 243 240 238 235 233 232 232 231 232 233 234 239 243 251
259 257 255 252 250 247 245 245 246 247 247 246 245 244 244 242 241 240 239 243 247 246 246 249 249 250 252 250 248 246 245 244 243 243 242 239 235 232 230 228 227 227 229 232 236 240 244 248 251 254 256 256 256 255 254 252 250 247 244 241 239 236 234 233 232 232 232 231 231 231 230 231 233 239
262 260 258 256 253 251 248 246 245 245 245 245 244 243 243 242 242 243 243 245 249 249 249 251 251 252 254 253 250 248 245 244 242 242 241 238 234 231 230 229 227 227 230 232 234 237 241 245 248 250 252 253 254 254 253 251 249 246 243 240 238 236 234 234 234 233 232 231 231 231 230 230 232 235
266 263 261 259 257 255 252 249 247 245 244 243 242 240 241 241 241 241 242 244 247 250 252 252 252 251 251 251 251 249 246 243 242 241 239 237 235 231 229 229 228 227 230 231 232 235 239 242 244 246 248 250 251 251 251 251 250 248 246 244 242 240 238 237 237 236 235 235 235 235 235 237 238 240
270 267 265 262 260 258 256 253 250 248 246 244 242 240 239 239 238 238 240 243 246 248 250 250 249 247 247 248 249 248 246 242 241 240 237 235 234 231 229 229 229 227 229 231 231 234 236 237 238 240 243 246 247 247 248 248 249 249 249 247 246 244 243 243 243 242 241 240 239 240 242 244 247 251
272 271 269 266 264 261 259 257 254 252 250 247 245 243 240 239 239 239 240 243 244 245 246 247 245 243 243 244 246 246 246 243 241 241 238 235 234 231 228 229 230 228 228 231 231 232 233 233 233 235 238 242 243 244 245 246 247 248 248 247 247 247 247 248 248 247 245 243 243 245 247 251 254 259
274 271 270 269 267 265 262 260 257 255 253 251 249 247 244 243 242 241 240 242 243 244 244 245 245 243 241 242 245 246 246 243 240 240 239 236 234 231 228 228 229 229 229 231 231 230 230 231 231 232 234 238 240 241 244 245 247 248 248 248 249 250 251 251 250 249 246 245 246 248 251 255 257 262
277 273 270 269 269 267 264 262 260 257 255 253 252 250 248 246 245 243 242 241 243 243 243 243 244 245 244 243 243 243 243 241 239 238 237 236 234 232 230 229 230 229 229 230 230 230 231 231 232 232 234 237 240 241 243 245 248 249 250 251 252 253 253 252 251 250 248 248 248 250 253 256 258 261
280 276 273 271 270 267 265 263 262 260 258 255 253 252 250 248 247 245 243 242 242 242 242 242 242 242 242 240 239 239 239 239 237 234 233 233 232 231 230 230 230 230 230 230 230 230 231 232 233 234 235 238 240 241 242 244 246 248 249 251 251 252 251 250 250 250 250 250 251 252 255 256 258 261
280 278 276 273 270 266 264 263 263 261 259 258 255 253 252 250 248 246 245 243 241 241 242 242 240 239 239 238 237 236 237 238 237 235 232 231 230 230 230 230 229 230 230 230 230 231 232 233 235 236 236 239 241 242 243 244 246 246 247 249 250 250 250 249 249 249 251 252 253 255 255 256 258 261
282 278 276 273 270 267 265 264 263 262 260 259 257 255 253 251 248 246 245 243 240 239 240 240 239 238 238 238 238 237 235 234 235 234 232 231 230 230 231 230 230 229 230 230 230 231 232 233 234 235 236 239 242 243 244 245 245 246 247 249 251 251 250 250 250 251 252 253 255 255 255 256 259 262
287 283 278 274 270 268 266 265 264 262 260 259 258 256 254 250 248 246 245 243 240 238 237 238 237 236 236 236 236 234 231 229 230 230 231 233 234 233 234 233 231 229 230 230 230 231 232 232 234 235 236 238 241 243 244 245 246 247 249 251 252 252 252 251 252 253 254 255 255 256 256 258 261 263
289 287 284 280 276 272 269 266 264 262 261 259 257 256 253 250 247 246 245 243 240 237 235 235 235 233 232 233 233 231 230 231 232 233 232 232 234 235 236 235 233 230 230 230 231 231 232 233 234 235 236 238 240 242 243 244 246 248 250 252 252 252 252 252 253 254 255 256 256 257 258 259 261 263
290 290 288 286 283 280 275 270 266 263 261 259 257 256 254 251 248 245 243 242 240 236 233 233 233 232 230 232 233 234 235 235 234 233 232 232 232 232 232 233 233 231 231 231 232 232 231 232 233 233 235 236 238 240 242 243 245 246 248 250 251 252 252 252 254 255 256 257 257 257 258 259 261 262
291 291 290 288 287 285 282 277 273 267 262 260 258 256 254 252 250 246 243 241 239 237 234 233 233 232 232 233 234 235 236 235 233 232 233 233 232 231 230 230 231 231 231 231 232 232 230 231 232 233 233 234 236 239 240 241 242 244 246 247 248 250 252 252 254 256 257 257 257 257 257 259 260 262
289 290 290 289 288 286 285 284 281 276 269 264 261 258 253 251 250 248 245 242 239 236 235 234 232 233 233 233 233 234 234 233 232 232 233 233 233 233 232 232 233 234 233 232 232 231 230 230 231 231 231 232 235 237 237 239 240 242 243 245 247 248 249 251 253 255 256 256 255 256 257 259 261 263
285 286 287 287 286 285 286 287 286 283 278 272 267 262 258 252 249 247 246 244 242 239 237 236 236 236 235 232 233 235 235 234 232 231 232 232 231 233 235 236 238 238 235 233 233 232 230 229 230 230 229 230 232 235 236 237 239 240 241 243 245 246 247 249 252 253 254 254 254 256 258 260 263 265
281 283 284 284 284 284 284 285 286 286 284 278 271 267 263 257 252 249 246 244 242 240 238 237 239 239 238 236 237 237 236 236 237 236 235 234 233 235 239 240 240 238 235 234 235 234 231 228 228 228 228 227 230 232 234 236 237 238 240 242 244 245 246 249 251 252 253 253 254 257 260 262 265 267
279 280 281 282 282 282 282 283 284 286 285 280 274 270 266 261 258 253 248 244 242 240 238 238 239 240 239 240 241 240 240 241 242 242 242 241 240 239 238 236 233 232 231 231 233 234 231 228 227 227 225 225 227 230 231 233 235 236 238 241 243 245 246 248 249 250 250 251 253 257 261 264 267 268
278 278 279 280 280 280 281 280 281 284 285 280 275 272 269 265 261 257 253 249 246 243 240 239 240 239 239 239 241 242 243 243 241 240 239 238 237 233 230 228 228 228 227 226 229 232 231 227 225 225 224 224 225 228 230 232 233 234 237 239 242 244 245 246 247 247 248 250 253 257 262 265 268 269
276 276 277 278 279 279 280 279 280 281 282 279 275 272 269 265 263 261 258 254 251 248 245 243 242 241 240 239 239 241 243 243 240 236 234 233 232 228 226 226 226 226 225 224 226 229 229 226 223 222 223 223 224 226 228 229 230 231 234 237 240 242 243 245 246 246 247 249 253 257 261 265 267 270
274 273 274 275 276 277 278 278 279 279 278 277 274 272 269 264 262 264 262 256 253 251 248 245 244 242 241 239 238 238 240 241 240 237 236 235 232 228 227 228 227 225 226 226 224 224 226 225 220 217 219 222 223 224 225 226 227 229 232 235 238 240 242 244 246 246 247 250 253 257 260 264 268 271
272 272 272 272 273 274 276 277 278 277 275 273 272 272 268 263 264 268 264 256 254 252 249 246 242 240 238 237 236 236 237 238 238 238 238 238 235 233 230 228 224 222 223 223 220 219 222 223 219 216 217 220 221 220 220 223 225 228 231 234 237 241 243 244 245 246 247 251 255 258 261 265 269 273
270 270 270 270 270 271 273 275 276 276 274 272 272 271 265 262 269 272 263 255 254 254 251 248 245 241 239 236 235 234 234 235 236 236 236 236 237 237 233 229 228 229 231 230 223 218 220 222 221 219 218 218 220 219 218 221 225 228 230 233 237 241 243 244 245 247 249 253 257 260 263 266 271 274
268 268 267 267 268 269 270 273 274 275 275 272 270 268 265 268 275 272 262 258 257 253 251 250 247 243 241 238 236 234 233 233 234 234 232 233 235 235 233 232 233 233 235 235 228 220 219 220 219 219 216 216 219 219 217 218 223 227 229 232 235 238 241 244 246 248 252 255 258 261 264 267 270 274
264 265 265 265 266 266 268 270 272 274 275 273 268 268 269 272 273 268 261 259 256 251 249 248 245 242 240 237 235 233 231 231 232 232 231 231 232 232 233 235 236 236 237 236 230 223 221 222 221 220 217 215 216 218 217 215 218 223 228 231 234 237 240 244 247 250 253 256 259 261 264 266 269 271
262 262 263 263 264 264 265 267 270 272 273 270 266 267 269 270 268 264 259 256 252 250 247 244 242 240 238 235 233 231 229 229 229 230 230 230 230 230 230 231 234 238 241 240 233 225 222 223 224 223 221 219 218 219 220 218 218 223 227 232 236 239 242 246 249 252 256 258 261 263 265 267 270 271
262 261 261 261 262 263 264 266 268 268 269 267 265 264 265 264 261 257 253 251 248 246 243 240 239 238 236 234 233 231 229 227 226 227 227 228 229 229 229 229 229 231 234 235 232 226 221 220 222 221 220 221 222 224 225 223 222 224 227 231 236 240 243 246 250 254 257 260 263 266 269 270 271 273
262 262 262 262 263 264 264 266 266 265 264 264 262 260 259 257 254 249 247 245 243 241 239 238 238 237 236 235 234 232 229 227 225 224 224 224 225 225 225 225 225 226 227 228 228 225 220 218 219 219 219 220 224 227 228 226 224 224 226 229 234 237 241 246 250 254 257 260 264 267 270 272 273 276
262 262 262 262 262 263 263 263 262 261 262 261 259 257 254 251 248 245 242 240 238 238 238 238 237 236 235 234 232 230 228 226 225 223 221 219 219 220 220 219 218 219 220 221 221 220 217 215 216 219 220 221 224 228 230 230 228 225 225 228 232 236 241 246 250 254 257 260 263 266 269 272 274 276
266 263 262 261 259 259 259 259 258 259 259 258 255 253 250 246 244 242 241 238 237 237 238 238 237 236 234 231 229 227 226 225 224 223 222 219 217 216 216 216 215 215 216 217 217 217 216 216 218 221 222 224 226 229 230 231 230 228 227 229 232 236 241 245 249 253 256 259 262 264 267 271 274 277
276 269 264 261 258 256 255 256 256 255 253 251 250 249 247 243 241 241 240 238 236 236 237 237 236 233 230 228 227 225 224 223 222 221 220 219 217 216 214 213 213 213 214 214 215 215 216 217 219 221 223 225 227 229 230 231 231 229 229 231 233 235 238 243 248 253 257 260 262 265 267 270 273 277
286 280 270 263 259 256 255 254 253 251 248 246 245 245 244 242 240 238 236 234 234 233 232 231 230 228 226 225 225 223 221 220 219 218 217 217 216 215 213 213 214 215 215 214 214 214 214 215 217 219 221 223 225 228 229 231 231 229 229 230 232 234 237 240 246 251 256 260 264 266 267 269 272 276
285 283 278 268 260 255 254 252 250 248 246 243 241 241 241 240 239 236 234 233 233 231 228 226 224 223 222 221 221 219 217 215 215 214 214 215 215 214 212 211 212 214 216 216 215 214 213 213 214 216 218 221 224 226 228 230 230 229 227 228 231 235 238 241 246 251 254 259 264 267 269 270 271 275
281 280 278 273 265 256 251 248 248 248 245 241 239 239 239 239 238 235 233 232 232 230 227 223 222 221 220 219 218 217 214 212 211 210 211 212 213 213 213 212 213 214 214 215 214 213 211 211 212 213 215 218 221 224 227 227 227 226 226 228 231 235 240 244 249 253 255 258 263 268 271 272 273 277
278 277 276 274 271 264 254 249 249 250 248 244 241 239 238 239 238 235 233 233 231 229 225 221 218 218 218 217 216 214 212 211 209 209 209 210 211 211 212 213 214 214 213 212 212 211 211 213 214 215 215 215 217 221 224 225 225 225 227 230 232 236 241 245 250 253 256 260 264 268 273 277 279 281
273 275 275 274 271 268 262 256 253 254 252 247 243 240 239 239 238 236 234 232 230 227 224 221 218 216 216 215 213 212 212 212 212 211 211 211 211 211 211 211 212 212 211 210 211 212 212 213 214 215 215 214 215 218 221 221 222 224 225 229 233 237 242 245 249 253 258 262 266 270 277 281 284 287
269 270 271 271 270 267 264 258 252 251 252 249 244 242 242 240 238 236 233 230 228 225 222 219 216 215 214 214 213 211 211 211 212 212 212 211 210 210 209 209 209 210 210 211 212 212 212 212 213 213 213 213 216 218 217 216 219 221 223 229 235 240 244 248 252 256 260 264 270 276 280 284 287 291
268 266 265 266 267 266 262 257 251 250 252 251 247 244 242 239 235 233 230 228 226 224 220 217 215 213 213 215 215 214 213 212 212 211 211 211 210 209 208 208 208 209 209 209 210 209 209 211 212 213 214 217 221 223 220 218 220 222 224 230 236 239 245 251 257 262 266 272 278 282 283 285 288 292
267 266 263 260 262 264 262 255 250 251 255 254 251 246 242 238 234 232 229 226 223 221 218 217 214 213 214 215 215 214 213 213 213 211 211 210 209 208 208 208 208 209 209 207 206 207 208 210 212 214 215 217 221 222 220 218 220 223 228 237 244 247 250 254 260 267 273 278 283 285 288 291 294 296
266 264 263 258 258 264 264 253 247 250 254 254 250 245 240 238 236 233 229 226 224 221 218 217 215 215 214 214 213 211 210 209 209 209 210 209 208 207 208 208 208 209 209 207 207 207 209 209 209 210 212 214 216 218 219 219 221 225 230 236 244 249 252 255 262 271 277 283 288 290 293 298 300 299
271 263 263 260 259 265 265 255 251 255 256 252 248 243 239 237 235 232 228 225 223 221 219 216 214 213 211 210 210 209 208 208 208 208 208 208 206 205 206 207 208 209 209 208 207 207 207 206 205 207 209 211 214 218 223 225 226 229 229 229 234 242 249 255 262 270 277 283 287 289 294 299 301 299
281 267 264 263 263 264 261 254 253 258 257 252 247 242 237 234 230 226 224 222 219 217 215 213 211 210 209 208 208 208 208 210 210 208 207 207 206 206 205 205 207 207 206 204 203 203 203 203 204 206 208 210 214 220 226 230 231 234 235 235 238 244 251 257 264 269 274 278 282 286 292 295 293 294
279 269 268 265 262 259 255 251 254 258 256 251 246 240 236 233 227 223 222 220 217 214 212 211 210 208 208 207 206 206 207 208 209 208 206 205 205 206 205 204 202 200 198 197 197 199 201 202 203 205 208 212 217 223 228 232 236 239 242 245 248 253 258 264 270 273 277 281 286 291 295 295 293 295
270 259 261 260 257 257 257 259 263 261 254 247 242 237 232 227 223 220 218 217 215 213 211 210 209 208 208 208 207 205 205 205 206 206 204 203 202 202 201 199 195 192 193 194 194 195 197 198 201 205 209 212 218 224 229 235 240 245 249 254 259 264 270 276 281 285 288 291 295 300 304 305 304 303
Height
1463 1464 1465 1466 1466 1468 1469 1470 1471 1472 1473 1474 1474 1474 1474 1476 1477 1476 1475 1475 1477 1481 1481 1482 1485 1487 1489 1490 1490 1491 1492 1493 1494 1494 1496 1497 1499 1501 1502 1504 1506 1507 1508 1509 1510 1510 1511 1512 1513 1513 1513 1513 1513 1513 1513 1513 1513 1512 1512 1512 1512 1513 1513 1513 1514 1514 1514 1514 1514 1514 1514 1514 1514 1515
1459 1459 1459 1461 1461 1463 1465 1466 1467 1468 1469 1470 1470 1470 1470 1471 1472 1471 1471 1470 1472 1476 1477 1479 1482 1483 1485 1487 1487 1487 1489 1490 1491 1491 1493 1494 1496 1498 1500 1501 1503 1504 1506 1506 1507 1507 1508 1509 1510 1510 1511 1511 1511 1511 1511 1511 1511 1510 1510 1510 1510 1510 1511 1511 1511 1512 1512 1512 1512 1512 1512 1513 1513 1513
1454 1454 1454 1455 1456 1458 1460 1461 1462 1463 1464 1465 1466 1466 1466 1467 1467 1468 1468 1467 1468 1471 1473 1475 1478 1480 1481 1483 1484 1485 1486 1487 1488 1488 1489 1491 1493 1495 1496 1498 1500 1501 1503 1503 1504 1504 1505 1506 1507 1507 1508 1508 1508 1509 1509 1509 1509 1509 1508 1508 1508 1508 1508 1508 1509 1509 1510 1510 1510 1510 1510 1511 1511 1511
1449 1449 1449 1449 1450 1452 1454 1455 1457 1458 1459 1461 1462 1463 1463 1463 1464 1465 1465 1463 1464 1467 1469 1470 1473 1475 1477 1478 1480 1481 1482 1484 1484 1485 1486 1488 1490 1491 1493 1495 1497 1498 1499 1500 1500 1501 1502 1503 1503 1504 1504 1505 1505 1506 1506 1506 1507 1506 1506 1506 1506 1506 1506 1506 1506 1507 1507 1507 1507 1507 1508 1508 1509 1509
1444 1444 1443 1444 1445 1447 1448 1449 1450 1452 1454 1456 1457 1459 1459 1459 1460 1461 1461 1460 1461 1463 1464 1466 1468 1470 1472 1473 1475 1478 1479 1480 1480 1481 1483 1484 1486 1487 1490 1491 1493 1494 1496 1496 1497 1497 1498 1499 1500 1501 1501 1502 1502 1503 1503 1503 1504 1504 1504 1504 1504 1504 1504 1503 1504 1504 1504 1504 1504 1505 1505 1505 1505 1505
1440 1439 1438 1438 1440 1442 1442 1442 1444 1446 1448 1450 1451 1453 1454 1455 1455 1456 1457 1457 1457 1458 1459 1461 1463 1464 1466 1468 1470 1473 1474 1475 1476 1477 1478 1480 1482 1484 1486 1487 1489 1490 1492 1492 1493 1493 1494 1495 1496 1497 1498 1498 1499 1499 1500 1500 1500 1500 1501 1501 1501 1501 1501 1500 1500 1501 1501 1501 1501 1501 1502 1502 1502 1501
1435 1434 1433 1433 1435 1437 1436 1436 1437 1439 1442 1444 1445 1446 1448 1449 1450 1452 1453 1453 1453 1453 1454 1455 1457 1458 1460 1463 1465 1468 1470 1471 1472 1472 1474 1476 1478 1480 1482 1483 1485 1486 1488 1488 1489 1489 1490 1491 1493 1494 1494 1495 1495 1496 1496 1496 1497 1497 1497 1497 1497 1497 1497 1498 1498 1498 1498 1498 1498 1498 1498 1499 1498 1498
1430 1429 1428 1428 1430 1431 1430 1429 1431 1434 1436 1437 1439 1439 1441 1442 1444 1446 1449 1449 1449 1449 1449 1450 1451 1453 1455 1458 1461 1463 1465 1466 1467 1467 1469 1470 1473 1475 1477 1479 1481 1482 1483 1484 1485 1486 1487 1488 1489 1490 1491 1491 1492 1492 1493 1493 1493 1493 1493 1493 1494 1494 1494 1495 1495 1495 1495 1495 1495 1495 1495 1496 1495 1495
1425 1424 1423 1423 1425 1425 1424 1424 1425 1428 1429 1431 1432 1433 1434 1436 1438 1440 1443 1444 1445 1444 1443 1444 1446 1448 1450 1452 1455 1457 1459 1461 1462 1462 1463 1465 1468 1470 1472 1474 1476 1477 1478 1480 1481 1482 1483 1484 1485 1486 1487 1487 1488 1488 1489 1489 1489 1490 1490 1490 1491 1491 1492 1492 1492 1492 1492 1492 1492 1492 1492 1493 1493 1493
1419 1419 1418 1418 1419 1419 1418 1418 1420 1422 1423 1424 1425 1426 1428 1430 1433 1434 1435 1437 1439 1439 1438 1438 1440 1442 1443 1445 1447 1450 1453 1455 1456 1457 1458 1459 1462 1464 1466 1468 1470 1472 1473 1475 1477 1478 1479 1480 1481 1482 1483 1483 1484 1485 1485 1485 1486 1486 1487 1488 1488 1489 1489 1489 1489 1489 1489 1489 1489 1489 1490 1490 1490 1490
1414 1413 1413 1413 1413 1413 1413 1413 1415 1416 1417 1418 1418 1420 1422 1425 1427 1428 1429 1431 1432 1433 1432 1432 1433 1435 1437 1439 1441 1443 1447 1449 1450 1451 1452 1453 1455 1457 1459 1461 1464 1466 1469 1470 1472 1473 1474 1476 1477 1478 1479 1479 1480 1481 1481 1481 1482 1483 1484 1485 1485 1485 1486 1486 1485 1485 1486 1486 1486 1487 1487 1487 1487 1487
1410 1409 1408 1408 1408 1408 1407 1408 1409 1410 1411 1412 1412 1413 1416 1418 1421 1422 1423 1424 1425 1426 1426 1425 1426 1428 1430 1432 1433 1436 1439 1439 1440 1443 1447 1449 1450 1452 1454 1457 1459 1461 1463 1465 1466 1468 1470 1471 1472 1473 1474 1475 1476 1477 1477 1478 1478 1479 1481 1481 1482 1482 1482 1482 1482 1482 1482 1483 1483 1484 1484 1485 1485 1484
1406 1405 1404 1403 1402 1402 1402 1403 1403 1404 1405 1406 1406 1407 1409 1412 1413 1415 1417 1418 1419 1420 1419 1419 1419 1420 1422 1423 1424 1425 1426 1429 1433 1439 1443 1443 1445 1448 1450 1452 1454 1456 1458 1459 1460 1462 1464 1466 1467 1468 1469 1471 1472 1473 1473 1474 1475 1476 1477 1478 1478 1479 1479 1480 1480 1480 1480 1480 1480 1481 1481 1482 1482 1481
1402 1401 1400 1398 1397 1397 1396 1396 1397 1398 1399 1399 1399 1401 1404 1406 1406 1407 1409 1411 1412 1413 1412 1412 1411 1412 1412 1413 1414 1415 1417 1423 1430 1435 1436 1437 1440 1443 1444 1445 1448 1450 1452 1453 1454 1456 1458 1460 1461 1463 1465 1466 1467 1468 1469 1470 1471 1472 1473 1474 1475 1476 1476 1477 1477 1477 1477 1477 1478 1478 1478 1478 1478 1478
1397 1396 1395 1394 1393 1392 1390 1390 1390 1391 1392 1392 1393 1395 1398 1399 1400 1400 1400 1401 1404 1406 1406 1406 1405 1403 1403 1405 1406 1409 1412 1417 1422 1426 1429 1432 1434 1435 1435 1437 1440 1443 1446 1447 1448 1449 1452 1454 1456 1458 1460 1462 1463 1464 1466 1466 1467 1468 1469 1470 1471 1472 1473 1473 1474 1474 1474 1474 1475 1475 1475 1475 1475 1475
1392 1391 1390 1389 1388 1386 1385 1385 1384 1384 1385 1386 1387 1389 1391 1392 1392 1393 1393 1393 1395 1398 1399 1400 1398 1396 1396 1398 1400 1402 1404 1409 1415 1420 1424 1426 1426 1427 1428 1430 1432 1436 1440 1441 1441 1443 1446 1448 1450 1452 1455 1457 1458 1460 1462 1462 1463 1463 1464 1465 1467 1468 1469 1470 1470 1470 1471 1471 1471 1472 1472 1472 1471 1471
1386 1385 1384 1383 1382 1382 1381 1380 1379 1378 1378 1379 1380 1382 1384 1384 1384 1385 1386 1387 1388 1389 1391 1392 1391 1390 1391 1392 1393 1395 1399 1404 1409 1413 1415 1417 1419 1419 1420 1423 1427 1431 1434 1435 1436 1438 1440 1442 1444 1446 1449 1452 1453 1455 1457 1458 1458 1459 1460 1461 1462 1464 1465 1466 1466 1466 1467 1467 1468 1468 1468 1468 1468 1467
1380 1379 1379 1377 1376 1376 1376 1374 1373 1373 1372 1372 1373 1375 1376 1376 1376 1377 1379 1380 1381 1382 1382 1382 1382 1385 1388 1388 1389 1392 1395 1398 1402 1405 1407 1409 1412 1413 1415 1419 1422 1423 1426 1428 1430 1431 1433 1435 1438 1440 1444 1446 1448 1450 1452 1453 1454 1454 1455 1457 1458 1460 1461 1461 1462 1462 1462 1463 1464 1465 1465 1465 1464 1464
1373 1373 1372 1371 1370 1369 1369 1369 1369 1368 1367 1367 1367 1366 1366 1367 1368 1369 1370 1371 1372 1374 1374 1374 1374 1378 1383 1386 1386 1388 1390 1392 1396 1400 1403 1406 1408 1410 1411 1411 1412 1414 1418 1421 1422 1423 1426 1430 1432 1434 1438 1441 1442 1444 1446 1447 1448 1449 1451 1453 1454 1455 1456 1457 1457 1457 1458 1459 1460 1460 1461 1461 1461 1460
1365 1365 1365 1364 1362 1362 1362 1363 1364 1363 1362 1361 1360 1359 1358 1359 1359 1360 1360 1362 1364 1366 1368 1368 1368 1371 1376 1380 1382 1383 1384 1388 1393 1397 1400 1401 1403 1403 1402 1402 1404 1406 1410 1413 1415 1416 1419 1424 1427 1430 1433 1435 1437 1439 1440 1442 1443 1444 1446 1448 1450 1451 1452 1452 1452 1453 1453 1454 1454 1455 1456 1456 1456 1456
1356 1356 1357 1356 1355 1354 1354 1355 1357 1358 1357 1355 1354 1353 1352 1352 1351 1350 1351 1354 1356 1358 1360 1362 1364 1366 1369 1372 1375 1377 1379 1382 1387 1390 1391 1392 1393 1394 1395 1395 1396 1398 1401 1405 1408 1410 1413 1417 1422 1425 1428 1430 1432 1434 1435 1436 1438 1439 1441 1444 1445 1446 1447 1447 1448 1448 1448 1449 1449 1449 1450 1451 1451 1451
1346 1347 1347 1348 1347 1346 1346 1347 1349 1351 1351 1349 1347 1346 1346 1345 1343 1341 1343 1346 1348 1351 1353 1355 1357 1359 1361 1364 1367 1369 1371 1374 1378 1379 1381 1383 1386 1387 1388 1388 1390 1393 1395 1397 1401 1404 1406 1410 1416 1419 1422 1424 1426 1429 1430 1431 1433 1435 1437 1439 1441 1442 1443 1443 1443 1443 1443 1444 1444 1444 1445 1446 1446 1447
1335 1336 1337 1339 1339 1339 1338 1340 1341 1343 1343 1342 1341 1340 1340 1338 1334 1333 1336 1340 1341 1343 1345 1347 1349 1352 1354 1357 1359 1362 1364 1366 1368 1370 1373 1377 1379 1380 1381 1383 1384 1385 1385 1388 1393 1398 1400 1404 1408 1412 1414 1417 1420 1423 1425 1426 1428 1430 1432 1434 1436 1437 1438 1438 1438 1438 1439 1439 1440 1440 1440 1441 1442 1443
1325 1326 1326 1328 1330 1331 1331 1332 1333 1334 1335 1335 1334 1334 1333 1331 1328 1328 1332 1334 1334 1336 1337 1339 1342 1345 1347 1349 1352 1354 1356 1358 1359 1361 1365 1368 1369 1372 1375 1376 1376 1376 1377 1381 1388 1392 1395 1398 1401 1404 1408 1411 1414 1417 1419 1421 1423 1425 1428 1430 1431 1432 1433 1434 1434 1434 1434 1434 1435 1436 1436 1437 1438 1438
1316 1316 1316 1317 1320 1322 1324 1325 1325 1326 1327 1328 1327 1326 1325 1324 1324 1326 1326 1326 1327 1329 1330 1332 1335 1337 1339 1341 1343 1345 1347 1349 1350 1353 1356 1358 1362 1366 1368 1369 1371 1372 1373 1377 1382 1386 1388 1390 1393 1397 1402 1406 1409 1412 1414 1417 1419 1421 1423 1425 1427 1428 1429 1429 1429 1429 1430 1430 1430 1431 1432 1433 1434 1435
1307 1306 1307 1308 1310 1313 1315 1317 1318 1318 1319 1320 1319 1319 1318 1319 1320 1321 1320 1320 1321 1323 1323 1324 1326 1328 1330 1332 1333 1335 1337 1339 1342 1346 1349 1352 1355 1360 1362 1365 1366 1367 1369 1373 1378 1381 1382 1383 1385 1389 1394 1399 1404 1407 1409 1412 1414 1416 1418 1420 1422 1423 1425 1425 1425 1425 1425 1426 1426 1427 1427 1429 1430 1430
1298 1297 1298 1299 1301 1304 1307 1309 1310 1311 1312 1312 1311 1311 1312 1313 1315 1316 1316 1315 1315 1316 1316 1317 1318 1319 1320 1322 1324 1326 1328 1331 1335 1339 1342 1346 1350 1354 1357 1360 1362 1364 1367 1370 1373 1375 1377 1378 1380 1383 1388 1392 1397 1401 1403 1406 1408 1410 1413 1415 1417 1419 1421 1421 1421 1421 1421 1422 1422 1422 1422 1424 1425 1426
1289 1289 1289 1291 1293 1295 1298 1300 1302 1303 1304 1304 1305 1304 1305 1306 1308 1309 1309 1309 1309 1310 1310 1310 1310 1310 1312 1314 1316 1319 1322 1326 1329 1333 1337 1341 1345 1348 1352 1355 1358 1360 1363 1365 1367 1369 1372 1374 1375 1378 1382 1386 1390 1394 1397 1400 1402 1405 1408 1410 1413 1415 1416 1416 1416 1416 1416 1417 1417 1417 1418 1418 1420 1420
1282 1281 1281 1283 1285 1287 1289 1292 1293 1294 1295 1296 1297 1297 1298 1300 1301 1302 1302 1302 1303 1303 1303 1303 1303 1304 1306 1309 1311 1315 1319 1322 1324 1327 1330 1334 1337 1341 1345 1349 1352 1355 1357 1360 1362 1365 1368 1370 1372 1374 1377 1380 1384 1388 1392 1395 1397 1399 1402 1405 1408 1410 1411 1411 1411 1411 1412 1412 1413 1413 1413 1413 1415 1415
1275 1275 1275 1276 1277 1279 1280 1283 1284 1285 1286 1287 1288 1290 1291 1293 1294 1294 1295 1295 1296 1296 1296 1297 1298 1300 1303 1306 1309 1311 1314 1316 1318 1320 1323 1326 1329 1333 1337 1341 1345 1348 1351 1354 1357 1360 1363 1366 1368 1370 1372 1375 1379 1383 1387 1389 1392 1394 1397 1400 1403 1405 1406 1406 1406 1406 1407 1408 1408 1408 1408 1409 1410 1410
1269 1268 1269 1270 1271 1272 1272 1274 1275 1276 1278 1279 1280 1282 1284 1285 1286 1287 1288 1288 1289 1289 1291 1292 1294 1297 1300 1302 1303 1305 1307 1310 1312 1314 1317 1320 1323 1328 1332 1336 1339 1342 1345 1349 1351 1354 1358 1360 1363 1366 1368 1370 1374 1378 1381 1384 1386 1389 1392 1395 1398 1400 1401 1401 1401 1402 1403 1403 1403 1403 1404 1405 1405 1406
1263 1263 1262 1262 1263 1264 1264 1265 1267 1268 1269 1270 1272 1273 1275 1277 1279 1280 1282 1282 1283 1284 1286 1288 1290 1293 1295 1296 1297 1300 1302 1305 1307 1309 1312 1315 1319 1323 1327 1330 1333 1336 1339 1342 1345 1348 1352 1355 1358 1361 1364 1367 1370 1373 1376 1378 1381 1384 1387 1390 1393 1395 1396 1397 1397 1397 1398 1398 1398 1399 1400 1400 1401 1402
1257 1256 1256 1255 1255 1256 1256 1257 1258 1259 1261 1262 1264 1265 1267 1269 1271 1274 1275 1276 1276 1277 1279 1282 1284 1286 1289 1290 1292 1295 1297 1300 1302 1305 1307 1310 1314 1318 1322 1325 1328 1330 1332 1335 1339 1343 1347 1350 1354 1357 1360 1362 1364 1367 1370 1373 1376 1379 1383 1386 1388 1389 1391 1393 1393 1393 1393 1393 1392 1393 1394 1395 1397 1398
1252 1250 1249 1248 1247 1248 1249 1250 1251 1252 1254 1255 1256 1257 1259 1261 1264 1266 1268 1269 1270 1272 1273 1275 1277 1279 1282 1285 1287 1289 1292 1295 1297 1300 1303 1306 1310 1313 1317 1320 1323 1326 1328 1331 1334 1338 1342 1345 1348 1352 1355 1357 1359 1362 1365 1368 1372 1375 1378 1381 1383 1384 1386 1388 1388 1389 1389 1389 1388 1388 1388 1390 1392 1394
1246 1243 1242 1241 1241 1242 1242 1243 1245 1246 1248 1249 1250 1251 1253 1255 1258 1260 1261 1263 1265 1266 1267 1269 1271 1272 1275 1278 1281 1284 1287 1290 1293 1296 1299 1303 1306 1310 1314 1317 1319 1322 1325 1328 1331 1334 1337 1340 1343 1347 1349 1352 1355 1357 1360 1364 1368 1371 1374 1376 1378 1380 1382 1382 1383 1384 1385 1385 1384 1383 1383 1384 1387 1389
1239 1237 1237 1236 1236 1238 1237 1237 1239 1242 1243 1244 1245 1247 1248 1250 1251 1253 1254 1256 1258 1260 1261 1262 1264 1266 1269 1272 1275 1279 1282 1285 1289 1292 1295 1299 1303 1307 1311 1314 1317 1319 1322 1324 1327 1330 1333 1336 1339 1342 1344 1347 1350 1352 1356 1360 1364 1367 1369 1371 1374 1376 1377 1378 1378 1379 1380 1381 1380 1379 1379 1379 1381 1384
1233 1232 1232 1231 1232 1233 1234 1234 1235 1237 1239 1240 1241 1242 1243 1244 1245 1247 1249 1251 1253 1255 1256 1257 1258 1260 1263 1267 1271 1274 1278 1281 1285 1288 1291 1295 1300 1304 1308 1311 1313 1316 1318 1321 1324 1327 1329 1332 1334 1337 1340 1343 1346 1349 1353 1357 1360 1362 1364 1367 1369 1371 1372 1373 1374 1376 1377 1377 1377 1376 1375 1374 1375 1378
1229 1229 1229 1228 1228 1229 1230 1230 1231 1232 1234 1236 1237 1238 1239 1239 1241 1243 1245 1247 1249 1250 1252 1253 1254 1256 1259 1263 1266 1270 1274 1278 1282 1285 1288 1292 1296 1300 1304 1307 1309 1312 1315 1318 1320 1323 1325 1327 1330 1332 1336 1339 1342 1346 1350 1353 1355 1358 1361 1363 1365 1367 1368 1369 1371 1373 1374 1374 1373 1372 1372 1370 1370 1372
1225 1225 1225 1225 1225 1225 1226 1227 1227 1228 1230 1232 1233 1233 1234 1235 1236 1238 1240 1242 1244 1246 1248 1249 1251 1253 1256 1259 1262 1266 1269 1274 1278 1281 1284 1288 1292 1296 1300 1303 1305 1307 1310 1313 1315 1318 1321 1324 1326 1330 1334 1337 1340 1343 1347 1350 1352 1355 1357 1360 1361 1363 1365 1366 1368 1369 1370 1370 1369 1368 1367 1366 1366 1367
1218 1219 1219 1220 1220 1221 1222 1222 1223 1224 1226 1228 1229 1229 1230 1231 1232 1233 1235 1237 1240 1242 1244 1246 1248 1251 1254 1256 1259 1262 1265 1269 1273 1277 1281 1285 1289 1292 1296 1299 1301 1304 1306 1309 1312 1314 1317 1321 1325 1329 1333 1336 1339 1342 1345 1347 1349 1351 1354 1356 1358 1360 1362 1363 1365 1365 1365 1366 1365 1363 1361 1361 1360 1360
1212 1213 1214 1215 1216 1216 1217 1217 1218 1220 1222 1223 1224 1225 1226 1227 1228 1230 1231 1234 1236 1238 1241 1243 1245 1248 1250 1252 1255 1258 1261 1266 1271 1275 1278 1282 1286 1290 1293 1296 1299 1301 1304 1306 1309 1312 1316 1320 1324 1328 1331 1333 1336 1339 1341 1344 1346 1348 1351 1353 1355 1356 1358 1360 1361 1362 1361 1361 1360 1358 1356 1356 1355 1352
1208 1208 1209 1211 1212 1213 1213 1214 1215 1216 1217 1219 1220 1221 1222 1224 1225 1227 1229 1231 1233 1235 1237 1240 1242 1245 1247 1249 1252 1255 1259 1263 1268 1272 1276 1280 1283 1287 1290 1293 1296 1299 1302 1305 1308 1312 1316 1320 1323 1325 1328 1331 1334 1336 1338 1341 1344 1346 1349 1351 1352 1354 1355 1357 1358 1358 1357 1357 1356 1355 1353 1353 1350 1346
1205 1205 1206 1208 1208 1208 1209 1210 1212 1213 1214 1215 1216 1217 1219 1220 1222 1224 1226 1228 1230 1232 1235 1237 1239 1242 1244 1247 1250 1254 1257 1261 1265 1269 1273 1277 1280 1284 1287 1290 1294 1297 1301 1305 1308 1312 1315 1318 1321 1323 1326 1328 1331 1334 1336 1339 1342 1344 1346 1348 1350 1351 1352 1353 1354 1354 1354 1353 1353 1352 1351 1350 1348 1343
1202 1203 1203 1204 1204 1205 1206 1208 1209 1209 1210 1212 1213 1214 1215 1217 1218 1220 1222 1224 1227 1229 1232 1234 1237 1240 1243 1246 1249 1252 1256 1260 1263 1267 1271 1275 1279 1282 1285 1288 1292 1296 1300 1304 1308 1311 1314 1317 1319 1321 1324 1326 1329 1331 1334 1337 1339 1341 1343 1345 1346 1347 1348 1349 1349 1349 1348 1348 1348 1348 1347 1346 1344 1340
1200 1201 1201 1202 1203 1204 1205 1206 1206 1206 1207 1208 1209 1211 1212 1214 1216 1218 1220 1222 1225 1227 1230 1233 1235 1239 1242 1245 1248 1251 1254 1258 1263 1266 1270 1274 1277 1280 1284 1287 1291 1296 1300 1303 1306 1309 1312 1315 1317 1319 1322 1324 1327 1329 1332 1334 1336 1338 1340 1341 1342 1344 1344 1344 1344 1343 1342 1341 1342 1342 1340 1339 1337 1334